Volver al catálogo

STARLINK-34975

ActivoComunicacionesVLEO
NORAD 65224·PAYLOAD·🇺🇸 United States

Lanzado Aug 14, 2025 desde Cape Canaveral Space Force Station

Loading…

Próximos Pases (próximas 24 horas)

TLE

ActualizadoSource: CelesTrak SupGP

Época: Sep 15, 2026, 03:48 UTC

1 65224C 25176AC  26258.15881944  .00074956  00000+0  22148-2 0  2580
2 65224  53.1590 348.7471 0001149  96.4893 283.1445 15.34350522    10

Sigue STARLINK-34975 en tiempo real con AllMySat

Download on the App Store